Time,TemperatureF,DewpointF,PressureIn,WindDirection,WindDirectionDegrees,WindSpeedMPH,WindSpeedGustMPH,Humidity,HourlyPrecipIn,Conditions,Clouds,dailyrainin,SoftwareType,DateUTC
2013-03-09 00:03:00,34.0,23.0,30.12,NNW,347,2.0,-999.0,63,-99.99,,,-99.99,,2013-03-09 05:03:00,
2013-03-09 00:12:00,34.0,23.0,30.12,NNW,347,2.0,-999.0,63,-99.99,,,-99.99,,2013-03-09 05:12:00,
2013-03-09 00:22:00,34.0,22.0,30.12,North,360,2.0,-999.0,62,-99.99,,,-99.99,,2013-03-09 05:22:00,
2013-03-09 00:32:00,34.0,23.0,30.12,NW,321,2.0,-999.0,63,-99.99,,,-99.99,,2013-03-09 05:32:00,
2013-03-09 00:43:00,34.0,23.0,30.12,NW,321,2.0,-999.0,63,-99.99,,,-99.99,,2013-03-09 05:43:00,
2013-03-09 00:52:00,33.0,22.0,30.13,NNW,335,1.0,-999.0,63,-99.99,,,-99.99,,2013-03-09 05:52:00,
2013-03-09 01:02:00,33.0,21.0,30.13,NNW,348,1.0,-999.0,62,-99.99,,,-99.99,,2013-03-09 06:02:00,
2013-03-09 01:11:00,33.0,21.0,30.13,NNW,336,0.0,-999.0,62,-99.99,,,-99.99,,2013-03-09 06:11:00,
2013-03-09 01:22:00,33.0,21.0,30.13,NNW,336,0.0,-999.0,62,-99.99,,,-99.99,,2013-03-09 06:22:00,
2013-03-09 01:32:00,33.0,21.0,30.14,NNW,327,0.0,-999.0,62,-99.99,,,-99.99,,2013-03-09 06:32:00,
2013-03-09 01:42:00,33.0,21.0,30.14,NNW,327,0.0,-999.0,62,-99.99,,,-99.99,,2013-03-09 06:42:00,
2013-03-09 01:52:00,33.0,21.0,30.13,NW,325,1.0,-999.0,62,-99.99,,,-99.99,,2013-03-09 06:52:00,
2013-03-09 02:01:00,32.0,21.0,30.13,NW,315,1.0,-999.0,63,-99.99,,,-99.99,,2013-03-09 07:01:00,
2013-03-09 02:11:00,32.0,21.0,30.13,NW,315,1.0,-999.0,63,-99.99,,,-99.99,,2013-03-09 07:11:00,
2013-03-09 02:21:00,32.0,21.0,30.13,North,5,1.0,-999.0,64,-99.99,,,-99.99,,2013-03-09 07:21:00,
2013-03-09 02:32:00,32.0,20.0,30.13,NNW,338,1.0,-999.0,62,-99.99,,,-99.99,,2013-03-09 07:32:00,
2013-03-09 02:42:00,32.0,20.0,30.13,NNW,338,1.0,-999.0,62,-99.99,,,-99.99,,2013-03-09 07:42:00,
2013-03-09 02:52:00,32.0,20.0,30.13,NNW,338,1.0,-999.0,62,-99.99,,,-99.99,,2013-03-09 07:52:00,
2013-03-09 03:01:00,31.0,20.0,30.13,NNE,22,1.0,-999.0,64,-99.99,,,-99.99,,2013-03-09 08:01:00,
2013-03-09 03:11:00,31.0,20.0,30.13,NNE,22,1.0,-999.0,64,-99.99,,,-99.99,,2013-03-09 08:11:00,
2013-03-09 03:22:00,31.0,20.0,30.12,NNW,335,1.0,-999.0,64,-99.99,,,-99.99,,2013-03-09 08:22:00,
2013-03-09 03:32:00,31.0,20.0,30.12,NNW,348,2.0,-999.0,64,-99.99,,,-99.99,,2013-03-09 08:32:00,
2013-03-09 03:42:00,31.0,20.0,30.12,NNW,348,2.0,-999.0,64,-99.99,,,-99.99,,2013-03-09 08:42:00,
2013-03-09 03:52:00,31.0,20.0,30.12,North,355,2.0,-999.0,64,-99.99,,,-99.99,,2013-03-09 08:52:00,
2013-03-09 04:02:00,30.0,20.0,30.13,NNW,347,1.0,-999.0,65,-99.99,,,-99.99,,2013-03-09 09:02:00,
2013-03-09 04:12:00,30.0,20.0,30.13,NNW,347,1.0,-999.0,65,-99.99,,,-99.99,,2013-03-09 09:12:00,
2013-03-09 04:21:00,30.0,20.0,30.13,NNW,347,1.0,-999.0,65,-99.99,,,-99.99,,2013-03-09 09:21:00,
2013-03-09 04:32:00,30.0,20.0,30.14,North,355,0.0,-999.0,66,-99.99,,,-99.99,,2013-03-09 09:32:00,
2013-03-09 04:42:00,30.0,20.0,30.14,North,355,0.0,-999.0,66,-99.99,,,-99.99,,2013-03-09 09:42:00,
2013-03-09 04:52:00,30.0,21.0,30.15,NNW,329,0.0,-999.0,68,-99.99,,,-99.99,,2013-03-09 09:52:00,
2013-03-09 05:01:00,30.0,20.0,30.15,NNE,14,3.0,-999.0,67,-99.99,,,-99.99,,2013-03-09 10:01:00,
2013-03-09 05:11:00,30.0,20.0,30.15,NNE,14,3.0,-999.0,67,-99.99,,,-99.99,,2013-03-09 10:11:00,
2013-03-09 05:22:00,30.0,20.0,30.16,NNE,22,2.0,-999.0,66,-99.99,,,-99.99,,2013-03-09 10:22:00,
2013-03-09 05:32:00,30.0,20.0,30.16,North,360,4.0,-999.0,65,-99.99,,,-99.99,,2013-03-09 10:32:00,
2013-03-09 05:42:00,30.0,20.0,30.16,North,360,4.0,-999.0,65,-99.99,,,-99.99,,2013-03-09 10:42:00,
2013-03-09 05:52:00,30.0,20.0,30.16,NNE,12,3.0,-999.0,65,-99.99,,,-99.99,,2013-03-09 10:52:00,
2013-03-09 06:01:00,30.0,19.0,30.16,NNW,348,1.0,-999.0,64,-99.99,,,-99.99,,2013-03-09 11:01:00,
2013-03-09 06:11:00,30.0,19.0,30.16,NNW,348,1.0,-999.0,64,-99.99,,,-99.99,,2013-03-09 11:11:00,
2013-03-09 06:21:00,29.0,19.0,30.17,NNW,333,1.0,-999.0,66,-99.99,,,-99.99,,2013-03-09 11:21:00,
2013-03-09 06:32:00,29.0,19.0,30.17,NNW,331,1.0,-999.0,67,-99.99,,,-99.99,,2013-03-09 11:32:00,
2013-03-09 06:42:00,29.0,19.0,30.17,NNW,331,1.0,-999.0,67,-99.99,,,-99.99,,2013-03-09 11:42:00,
2013-03-09 06:52:00,29.0,19.0,30.17,NNW,342,3.0,-999.0,67,-99.99,,,-99.99,,2013-03-09 11:52:00,
2013-03-09 07:02:00,29.0,20.0,30.18,NNW,343,2.0,-999.0,68,-99.99,,,-99.99,,2013-03-09 12:02:00,
2013-03-09 07:11:00,29.0,20.0,30.18,NNW,343,2.0,-999.0,68,-99.99,,,-99.99,,2013-03-09 12:11:00,
2013-03-09 07:22:00,30.0,20.0,30.19,North,11,1.0,-999.0,66,-99.99,,,-99.99,,2013-03-09 12:22:00,
2013-03-09 07:32:00,30.0,20.0,30.20,NNW,344,1.0,-999.0,65,-99.99,,,-99.99,,2013-03-09 12:32:00,
2013-03-09 07:42:00,30.0,20.0,30.20,NNW,344,1.0,-999.0,65,-99.99,,,-99.99,,2013-03-09 12:42:00,
2013-03-09 07:52:00,31.0,20.0,30.21,NNW,346,3.0,-999.0,63,-99.99,,,-99.99,,2013-03-09 12:52:00,
2013-03-09 08:02:00,32.0,20.0,30.22,NNE,28,3.0,-999.0,61,-99.99,,,-99.99,,2013-03-09 13:02:00,
2013-03-09 08:11:00,32.0,20.0,30.22,NNE,28,3.0,-999.0,61,-99.99,,,-99.99,,2013-03-09 13:11:00,
2013-03-09 08:21:00,33.0,20.0,30.21,NNE,23,5.0,-999.0,58,-99.99,,,-99.99,,2013-03-09 13:21:00,
2013-03-09 08:32:00,34.0,21.0,30.21,NNE,30,6.0,-999.0,58,-99.99,,,-99.99,,2013-03-09 13:32:00,
2013-03-09 08:42:00,34.0,21.0,30.21,NNE,30,6.0,-999.0,58,-99.99,,,-99.99,,2013-03-09 13:42:00,
2013-03-09 08:52:00,35.0,21.0,30.21,NE,56,5.0,-999.0,56,-99.99,,,-99.99,,2013-03-09 13:52:00,
2013-03-09 09:01:00,36.0,21.0,30.22,NNE,24,4.0,-999.0,55,-99.99,,,-99.99,,2013-03-09 14:01:00,
2013-03-09 09:11:00,36.0,21.0,30.22,NNE,24,4.0,-999.0,55,-99.99,,,-99.99,,2013-03-09 14:11:00,
2013-03-09 09:21:00,37.0,21.0,30.22,NNE,16,4.0,-999.0,52,-99.99,,,-99.99,,2013-03-09 14:21:00,
2013-03-09 09:32:00,37.0,21.0,30.22,NNE,26,5.0,-999.0,52,-99.99,,,-99.99,,2013-03-09 14:32:00,
2013-03-09 09:42:00,37.0,21.0,30.22,NNE,26,5.0,-999.0,52,-99.99,,,-99.99,,2013-03-09 14:42:00,
2013-03-09 09:52:00,38.0,21.0,30.22,ENE,61,4.0,-999.0,50,-99.99,,,-99.99,,2013-03-09 14:52:00,
2013-03-09 10:02:00,39.0,21.0,30.22,NE,38,7.0,-999.0,48,-99.99,,,-99.99,,2013-03-09 15:02:00,
2013-03-09 10:12:00,39.0,21.0,30.22,NE,38,7.0,-999.0,48,-99.99,,,-99.99,,2013-03-09 15:12:00,
2013-03-09 10:22:00,39.0,20.0,30.22,NNE,16,8.0,-999.0,47,-99.99,,,-99.99,,2013-03-09 15:22:00,
2013-03-09 10:32:00,40.0,21.0,30.22,ENE,71,7.0,-999.0,47,-99.99,,,-99.99,,2013-03-09 15:32:00,
2013-03-09 10:42:00,40.0,21.0,30.22,ENE,71,7.0,-999.0,47,-99.99,,,-99.99,,2013-03-09 15:42:00,
2013-03-09 10:52:00,41.0,22.0,30.22,NE,48,6.0,-999.0,46,-99.99,,,-99.99,,2013-03-09 15:52:00,
2013-03-09 11:01:00,42.0,22.0,30.22,NE,49,4.0,-999.0,45,-99.99,,,-99.99,,2013-03-09 16:01:00,
2013-03-09 11:11:00,42.0,22.0,30.22,NE,49,4.0,-999.0,45,-99.99,,,-99.99,,2013-03-09 16:11:00,
2013-03-09 11:21:00,42.0,22.0,30.22,NNE,15,6.0,-999.0,44,-99.99,,,-99.99,,2013-03-09 16:21:00,
2013-03-09 11:32:00,43.0,23.0,30.22,North,5,3.0,-999.0,45,-99.99,,,-99.99,,2013-03-09 16:32:00,
2013-03-09 11:42:00,43.0,23.0,30.22,North,5,3.0,-999.0,45,-99.99,,,-99.99,,2013-03-09 16:42:00,
2013-03-09 11:52:00,42.0,20.0,30.22,NE,49,8.0,-999.0,41,-99.99,,,-99.99,,2013-03-09 16:52:00,
2013-03-09 12:01:00,44.0,22.0,30.22,NE,53,3.0,-999.0,41,-99.99,,,-99.99,,2013-03-09 17:01:00,
2013-03-09 12:11:00,44.0,22.0,30.22,NE,53,3.0,-999.0,41,-99.99,,,-99.99,,2013-03-09 17:11:00,
2013-03-09 12:22:00,44.0,21.0,30.22,ENE,59,4.0,-999.0,40,-99.99,,,-99.99,,2013-03-09 17:22:00,
2013-03-09 12:32:00,45.0,22.0,30.22,NE,48,3.0,-999.0,39,-99.99,,,-99.99,,2013-03-09 17:32:00,
2013-03-09 12:42:00,45.0,22.0,30.22,NE,48,3.0,-999.0,39,-99.99,,,-99.99,,2013-03-09 17:42:00,
2013-03-09 12:52:00,45.0,22.0,30.22,NNE,19,3.0,-999.0,39,-99.99,,,-99.99,,2013-03-09 17:52:00,
2013-03-09 13:02:00,46.0,22.0,30.22,NE,53,3.0,-999.0,39,-99.99,,,-99.99,,2013-03-09 18:02:00,
2013-03-09 13:11:00,46.0,22.0,30.22,NE,53,3.0,-999.0,39,-99.99,,,-99.99,,2013-03-09 18:11:00,
2013-03-09 13:21:00,47.0,23.0,30.21,NNE,17,4.0,-999.0,39,-99.99,,,-99.99,,2013-03-09 18:21:00,
2013-03-09 13:32:00,47.0,23.0,30.21,North,355,3.0,-999.0,38,-99.99,,,-99.99,,2013-03-09 18:32:00,
2013-03-09 13:42:00,47.0,23.0,30.21,North,355,3.0,-999.0,38,-99.99,,,-99.99,,2013-03-09 18:42:00,
2013-03-09 13:52:00,48.0,23.0,30.20,NNE,25,2.0,-999.0,37,-99.99,,,-99.99,,2013-03-09 18:52:00,
2013-03-09 14:02:00,49.0,24.0,30.20,ENE,74,1.0,-999.0,37,-99.99,,,-99.99,,2013-03-09 19:02:00,
2013-03-09 14:12:00,49.0,24.0,30.20,ENE,74,1.0,-999.0,37,-99.99,,,-99.99,,2013-03-09 19:12:00,
2013-03-09 14:22:00,49.0,23.0,30.20,North,10,3.0,-999.0,36,-99.99,,,-99.99,,2013-03-09 19:22:00,
2013-03-09 14:32:00,50.0,25.0,30.20,ENE,58,0.0,-999.0,37,-99.99,,,-99.99,,2013-03-09 19:32:00,
2013-03-09 14:42:00,50.0,25.0,30.20,ENE,58,0.0,-999.0,37,-99.99,,,-99.99,,2013-03-09 19:42:00,
2013-03-09 14:52:00,50.0,24.0,30.20,NE,34,1.0,-999.0,36,-99.99,,,-99.99,,2013-03-09 19:52:00,
2013-03-09 15:02:00,51.0,25.0,30.20,NE,54,1.0,-999.0,36,-99.99,,,-99.99,,2013-03-09 20:02:00,
2013-03-09 15:11:00,51.0,25.0,30.20,NE,54,1.0,-999.0,36,-99.99,,,-99.99,,2013-03-09 20:11:00,
2013-03-09 15:22:00,50.0,24.0,30.19,NE,37,2.0,-999.0,36,-99.99,,,-99.99,,2013-03-09 20:22:00,
2013-03-09 15:32:00,49.0,25.0,30.20,NE,47,1.0,-999.0,38,-99.99,,,-99.99,,2013-03-09 20:32:00,
2013-03-09 15:42:00,49.0,25.0,30.20,NE,47,1.0,-999.0,38,-99.99,,,-99.99,,2013-03-09 20:42:00,
2013-03-09 15:52:00,48.0,28.0,30.20,NE,36,2.0,-999.0,45,-99.99,,,-99.99,,2013-03-09 20:52:00,
2013-03-09 16:02:00,47.0,28.0,30.21,NE,53,1.0,-999.0,48,-99.99,,,-99.99,,2013-03-09 21:02:00,
2013-03-09 16:12:00,47.0,28.0,30.21,NE,53,1.0,-999.0,48,-99.99,,,-99.99,,2013-03-09 21:12:00,
2013-03-09 16:22:00,46.0,28.0,30.21,ENE,58,2.0,-999.0,49,-99.99,,,-99.99,,2013-03-09 21:22:00,
2013-03-09 16:32:00,45.0,28.0,30.22,NE,46,2.0,-999.0,51,-99.99,,,-99.99,,2013-03-09 21:32:00,
2013-03-09 16:42:00,45.0,28.0,30.22,NE,46,2.0,-999.0,51,-99.99,,,-99.99,,2013-03-09 21:42:00,
2013-03-09 16:52:00,45.0,28.0,30.22,ESE,121,1.0,-999.0,52,-99.99,,,-99.99,,2013-03-09 21:52:00,
2013-03-09 17:01:00,44.0,29.0,30.22,ESE,123,1.0,-999.0,55,-99.99,,,-99.99,,2013-03-09 22:01:00,
2013-03-09 17:11:00,44.0,29.0,30.22,ESE,123,1.0,-999.0,55,-99.99,,,-99.99,,2013-03-09 22:11:00,
2013-03-09 17:22:00,43.0,30.0,30.23,SE,146,2.0,-999.0,59,-99.99,,,-99.99,,2013-03-09 22:22:00,
2013-03-09 17:32:00,42.0,30.0,30.24,SE,143,2.0,-999.0,62,-99.99,,,-99.99,,2013-03-09 22:32:00,
2013-03-09 17:42:00,42.0,30.0,30.24,SE,143,2.0,-999.0,62,-99.99,,,-99.99,,2013-03-09 22:42:00,
2013-03-09 17:51:00,40.0,29.0,30.24,SE,143,1.0,-999.0,65,-99.99,,,-99.99,,2013-03-09 22:51:00,
2013-03-09 18:01:00,39.0,29.0,30.26,SE,142,1.0,-999.0,68,-99.99,,,-99.99,,2013-03-09 23:01:00,
2013-03-09 18:11:00,39.0,29.0,30.26,SE,142,1.0,-999.0,68,-99.99,,,-99.99,,2013-03-09 23:11:00,
2013-03-09 18:22:00,38.0,29.0,30.26,SE,142,0.0,-999.0,70,-99.99,,,-99.99,,2013-03-09 23:22:00,
2013-03-09 18:32:00,37.0,29.0,30.27,SE,142,0.0,-999.0,72,-99.99,,,-99.99,,2013-03-09 23:32:00,
2013-03-09 18:42:00,37.0,29.0,30.27,SE,142,0.0,-999.0,72,-99.99,,,-99.99,,2013-03-09 23:42:00,
2013-03-09 18:52:00,36.0,29.0,30.27,SE,142,0.0,-999.0,74,-99.99,,,-99.99,,2013-03-09 23:52:00,
2013-03-09 19:02:00,35.0,28.0,30.27,SE,142,0.0,-999.0,76,-99.99,,,-99.99,,2013-03-10 00:02:00,
2013-03-09 19:11:00,35.0,28.0,30.27,SE,142,0.0,-999.0,76,-99.99,,,-99.99,,2013-03-10 00:11:00,
2013-03-09 19:22:00,35.0,29.0,30.28,SE,142,0.0,-999.0,77,-99.99,,,-99.99,,2013-03-10 00:22:00,
2013-03-09 19:32:00,34.0,28.0,30.28,SE,142,0.0,-999.0,78,-99.99,,,-99.99,,2013-03-10 00:32:00,
2013-03-09 19:42:00,34.0,28.0,30.28,SE,142,0.0,-999.0,78,-99.99,,,-99.99,,2013-03-10 00:42:00,
2013-03-09 19:52:00,34.0,28.0,30.28,SE,142,0.0,-999.0,78,-99.99,,,-99.99,,2013-03-10 00:52:00,
2013-03-09 20:01:00,33.0,28.0,30.29,SE,142,0.0,-999.0,80,-99.99,,,-99.99,,2013-03-10 01:01:00,
2013-03-09 20:11:00,33.0,28.0,30.29,SE,142,0.0,-999.0,80,-99.99,,,-99.99,,2013-03-10 01:11:00,
2013-03-09 20:21:00,32.0,27.0,30.29,SE,142,0.0,-999.0,80,-99.99,,,-99.99,,2013-03-10 01:21:00,
2013-03-09 20:32:00,31.0,26.0,30.30,SE,142,0.0,-999.0,82,-99.99,,,-99.99,,2013-03-10 01:32:00,
2013-03-09 20:42:00,31.0,26.0,30.30,SE,142,0.0,-999.0,82,-99.99,,,-99.99,,2013-03-10 01:42:00,
2013-03-09 20:52:00,31.0,26.0,30.30,SE,142,0.0,-999.0,83,-99.99,,,-99.99,,2013-03-10 01:52:00,
2013-03-09 21:01:00,30.0,26.0,30.30,SE,142,0.0,-999.0,84,-99.99,,,-99.99,,2013-03-10 02:01:00,
2013-03-09 21:11:00,30.0,26.0,30.30,SE,142,0.0,-999.0,84,-99.99,,,-99.99,,2013-03-10 02:11:00,
2013-03-09 21:22:00,29.0,25.0,30.31,SE,142,0.0,-999.0,85,-99.99,,,-99.99,,2013-03-10 02:22:00,
2013-03-09 21:32:00,29.0,25.0,30.32,SE,142,0.0,-999.0,86,-99.99,,,-99.99,,2013-03-10 02:32:00,
2013-03-09 21:42:00,29.0,25.0,30.32,SE,142,0.0,-999.0,86,-99.99,,,-99.99,,2013-03-10 02:42:00,
2013-03-09 21:52:00,29.0,26.0,30.32,SE,142,0.0,-999.0,87,-99.99,,,-99.99,,2013-03-10 02:52:00,
2013-03-09 22:02:00,29.0,26.0,30.31,SE,142,0.0,-999.0,87,-99.99,,,-99.99,,2013-03-10 03:02:00,
2013-03-09 22:12:00,28.0,25.0,30.30,SE,135,0.0,-999.0,87,-99.99,,,-99.99,,2013-03-10 03:12:00,
2013-03-09 22:22:00,28.0,25.0,30.30,SE,135,0.0,-999.0,87,-99.99,,,-99.99,,2013-03-10 03:22:00,
2013-03-09 22:32:00,28.0,25.0,30.30,SE,135,0.0,-999.0,87,-99.99,,,-99.99,,2013-03-10 03:32:00,
2013-03-09 22:42:00,28.0,25.0,30.30,SE,135,0.0,-999.0,87,-99.99,,,-99.99,,2013-03-10 03:42:00,
2013-03-09 22:52:00,28.0,25.0,30.30,SE,135,0.0,-999.0,87,-99.99,,,-99.99,,2013-03-10 03:52:00,
2013-03-09 23:01:00,28.0,25.0,30.30,SE,135,0.0,-999.0,89,-99.99,,,-99.99,,2013-03-10 04:01:00,
2013-03-09 23:11:00,28.0,25.0,30.30,SE,135,0.0,-999.0,89,-99.99,,,-99.99,,2013-03-10 04:11:00,
2013-03-09 23:21:00,28.0,25.0,30.30,SE,135,0.0,-999.0,89,-99.99,,,-99.99,,2013-03-10 04:21:00,
2013-03-09 23:32:00,28.0,25.0,30.31,SE,135,0.0,-999.0,89,-99.99,,,-99.99,,2013-03-10 04:32:00,
2013-03-09 23:42:00,28.0,25.0,30.31,SE,135,0.0,-999.0,89,-99.99,,,-99.99,,2013-03-10 04:42:00,
2013-03-09 23:52:00,28.0,25.0,30.31,SE,135,0.0,-999.0,89,-99.99,,,-99.99,,2013-03-10 04:52:00,